{"data":{"norad_id":65137,"intl_designator":"2025-171F","name":"KUIPER-00098","alt_names":[],"object_type":"PAYLOAD","status":"ACTIVE","operator":null,"country":"US","launch_date":"2025-08-11","launch_site_code":"AFETR","launch_vehicle":null,"mission":null,"orbit_class":"UNKNOWN","rcs_meters":null,"size_class":null,"mass_kg":null,"dimensions":null,"purposes":[],"wikipedia_slug":null,"has_3d_model":false,"image_url":null,"decayed_at":null,"tle_current":{"epoch":"2026-05-24T20:17:47.115744Z","epoch_age_seconds":85834,"freshness":"FRESH","line1":"1 65137U 25171F   26144.84568421  .00002008  00000+0  29223-3 0  9993","line2":"2 65137  51.8993 186.3303 0000310  65.3640 294.7354 14.79940463 43447","mean_motion":14.79940463,"eccentricity":3.1e-5,"inclination_deg":51.8993,"raan_deg":186.3303,"arg_perigee_deg":65.364,"mean_anomaly_deg":294.7354,"bstar":0.00029223,"rev_number":4344,"period_min":97.301211501506,"perigee_km":629.29483331115,"apogee_km":629.72930755351,"semimajor_km":7007.6490704323,"source":"CELESTRAK","updated_at":"2026-05-25T13:38:05.164759Z"}}}